Home   Weather   Leutkirch im Allgäu   Past weeks

Flag for Germany Past Weather in Leutkirch im Allgäu, Baden-Württemberg, Germany — Yesterday and Last 2 Weeks

Now
70 °F

Passing clouds.


Feels Like: 70 °F
Forecast: 57 / 72 °F
Wind: 5 mph from Southeast

Location: Friedrichshafen Airport

Current Time: May 30, 2017 at 9:22:12 am

Latest Report: May 30, 2017 at 8:50 am


Visibility: N/A

Pressure: 30.04 "Hg (27.84 "Hg at 656m altitude)

Humidity: 69%

Dew Point: 59 °F

Location of Leutkirch im AllgäuLocation

Past Weather in Leutkirch im Allgäu — Graph

°F

Leutkirch im Allgäu Temperature Yesterday

Maximum temperature yesterday: 88 °F (at 4:20 pm)
Minimum temperature yesterday: 54 °F (at 4:20 am)
Average temperature yesterday: 72 °F

High & Low Weather Summary for the Past Weeks

 TemperatureHumidityPressure
High88 °F (May 28, 4:20 pm)100% (May 20, 12:55 am)30.42 "Hg (May 20, 12:55 am)
Low36 °F (May 20, 4:20 am)19% (May 28, 4:50 pm)29.80 "Hg (May 19, 12:44 am)
Average64 °F62%30.13 "Hg
* Reported May 15 7:20 am — May 30 7:50 am, Leutkirch im Allgäu. Weather by CustomWeather, © 2017

Note: Actual official high and low records may vary slightly from our data, if they occured in-between our weather recording intervals... More about our weather records

Advertising

Leutkirch im Allgäu Weather History for the Previous 24 Hours

Scroll right to see more
 ConditionsComfort  
Time TempWeatherWind HumidityBarometerVisibility
7:50 am
Tue, May 30
66 °FSunny.2 mph78%30.04 "Hg10 mi
7:20 am64 °FSunny.No wind83%30.01 "Hg10 mi
6:50 am63 °FSunny.1 mph83%30.01 "Hg10 mi
6:20 am63 °FSunny.2 mph83%30.01 "Hg10 mi
5:50 am63 °FSunny.2 mph83%30.01 "Hg10 mi
5:20 am64 °FPassing clouds.5 mph78%30.01 "HgN/A
4:50 am64 °FClear.1 mph83%30.01 "Hg10 mi
4:20 am66 °FClear.No wind78%30.01 "Hg10 mi
3:50 am68 °FClear.7 mph69%30.01 "Hg10 mi
2:50 am68 °FPassing clouds.5 mph64%30.01 "HgN/A
2:20 am68 °FClear.3 mph69%30.04 "Hg10 mi
1:50 am68 °FClear.9 mph64%30.04 "Hg10 mi
1:20 am70 °FClear.10 mph60%30.04 "Hg10 mi
12:50 am70 °FClear.13 mph64%30.04 "Hg10 mi
12:20 am72 °FPassing clouds.8 mph61%30.01 "HgN/A
11:50 pm
Mon, May 29
72 °FClear.13 mph61%30.01 "Hg10 mi
11:20 pm75 °FClear.17 mph54%29.98 "Hg10 mi
10:50 pm68 °FClear.1 mph64%29.95 "Hg10 mi
10:20 pm70 °FMild.1 mph57%29.95 "HgN/A
9:50 pm72 °FClear.No wind53%29.92 "Hg10 mi
9:20 pm73 °FClear.2 mph53%29.92 "Hg10 mi
8:50 pm77 °FSunny.1 mph42%29.92 "Hg10 mi
8:20 pm81 °FSunny.2 mph39%29.92 "Hg10 mi
7:50 pm82 °FSunny.3 mph32%29.92 "Hg10 mi
7:20 pm84 °FSunny.7 mph31%29.92 "Hg10 mi
6:50 pm86 °FSunny.6 mph33%29.92 "Hg10 mi
6:20 pm86 °FSunny.7 mph31%29.92 "Hg10 mi
5:50 pm88 °FSunny.8 mph31%29.92 "Hg10 mi
5:20 pm88 °FSunny.8 mph31%29.92 "Hg10 mi
4:50 pm88 °FSunny.7 mph33%29.95 "Hg10 mi
4:20 pm88 °FSunny.5 mph33%29.95 "Hg10 mi
3:50 pm86 °FPassing clouds.6 mph35%29.95 "HgN/A
3:20 pm86 °FPassing clouds.8 mph35%29.95 "HgN/A
2:50 pm84 °FPassing clouds.7 mph40%29.98 "HgN/A
2:20 pm84 °FPassing clouds.7 mph40%29.98 "HgN/A
1:50 pm82 °FPassing clouds.9 mph45%29.98 "HgN/A
1:20 pm82 °FSunny.7 mph42%30.01 "Hg10 mi
12:50 pm81 °FSunny.8 mph45%30.01 "Hg10 mi
12:20 pm79 °FSunny.7 mph45%30.01 "Hg10 mi
11:50 am79 °FPassing clouds.5 mph45%30.01 "HgN/A
11:20 am77 °FSunny.3 mph47%30.04 "Hg10 mi
10:50 am77 °FSunny.3 mph51%30.04 "Hg10 mi
10:20 am75 °FSunny.3 mph50%30.04 "Hg10 mi
9:50 am73 °FSunny.3 mph57%30.04 "Hg10 mi
9:20 am73 °FSunny.2 mph57%30.04 "Hg10 mi
Weather by CustomWeather, © 2017

See weather overviewHow to use our weather pages